Simultaneous Nadir Overpasses (SNOs) Predictions

Prediction of SNOs between GOES-15 and NPP Satellite Orbit:

Table of predicted SNOs for the next 14.0 days since TLE Epoch: 6/19/2020
Index Date Time (GOES-15) GOES-15 Lat,Lon NPP Lat,Lon Distance(km) Time Diff (sec)
1 06/20/2020 21:55:31 -0.02,-127.80 -0.04,-127.99 21.40 80
2 06/21/2020 21:36:46 -0.01,-127.83 0.95,-123.45 498.77 80
3 06/23/2020 10:01:14 0.02,-127.93 0.17,-128.73 90.81 80
4 06/24/2020 09:39:49 0.01,-127.95 -0.81,-124.19 428.61 80
5 06/25/2020 22:04:25 -0.02,-127.94 -0.34,-129.50 176.06 80
6 06/26/2020 21:43:00 -0.02,-127.97 0.64,-124.96 343.52 80
7 06/28/2020 10:07:27 0.03,-128.07 0.54,-130.22 246.29 80
8 06/29/2020 09:46:02 0.02,-128.09 -0.51,-125.69 272.73 80
9 06/30/2020 22:10:38 -0.03,-128.07 -0.70,-130.99 333.20 80
10 07/01/2020 21:49:13 -0.02,-128.09 0.35,-126.46 185.67 80
11 07/03/2020 10:13:41 0.02,-128.18 0.83,-131.73 404.99 80




NCC Satellite Simultaneous Nadir Overpasses (SNOs) Prediction Service
